Location: La Tine
(46.4708°N, 7.0525°E)
Time: 08:26:27
(UTC+00:00)

Meteor 1-24 Rocket - Pass Details

Date: 19 January 2021
Orbit: 790 x 927 km, 81.3° (Epoch: 24 February)

Event Time Altitude Azimuth Distance (km) Brightness Sun altitude
Exits shadow 04:44:04 60° 244° (WSW) 944 3.6 -24.5°
Drops below altitude 10° 04:49:12 10° 185° (S) 2,467 6.1 -23.6°
Sets 04:51:40 0° 182° (S) 3,420 6.9 -23.2°
